Find STARLINK-37566

NORAD ID: 70573 Constellation: starlink operational
LEOCIRCULARRETROGRADE

Live Position

Loading 3D Globe...

About STARLINK-37566

Description loading...

Upcoming Passes

Passes for default location (London). Set your location on the main map for personalized predictions.

Altitude History

Loading altitude history...

Two-Line Element Set

1 70573C 26097P 26121.86576389 -.00523900 00000+0 -75999-3 0 1219
2 70573 97.2855 316.5251 0008397 256.7786 265.7640 16.05471274 19
Epoch: May 1, 2026 • Age: 28 hours